TimeCST,TemperatureF,Dew PointF,Humidity,Sea Level PressureIn,VisibilityMPH,Wind Direction,Wind SpeedMPH,Gust SpeedMPH,PrecipitationIn,Events,Conditions,WindDirDegrees,DateUTC
12:14 AM,33.8,21.2,60,29.97,10.0,NW,4.6,-,N/A,,Clear,320,2012-12-07 06:14:00
12:34 AM,33.8,21.2,60,29.97,10.0,NW,5.8,-,N/A,,Clear,320,2012-12-07 06:34:00
12:54 AM,33.8,21.2,60,29.98,10.0,NW,8.1,-,N/A,,Clear,310,2012-12-07 06:54:00
1:14 AM,32.0,21.2,64,29.99,10.0,NW,8.1,-,N/A,,Clear,310,2012-12-07 07:14:00
1:34 AM,32.0,21.2,64,30.00,10.0,NW,9.2,-,N/A,,Clear,310,2012-12-07 07:34:00
1:54 AM,30.2,21.2,69,30.00,10.0,NW,6.9,-,N/A,,Clear,320,2012-12-07 07:54:00
2:14 AM,30.2,19.4,64,30.01,10.0,NNW,8.1,-,N/A,,Clear,340,2012-12-07 08:14:00
2:34 AM,30.2,21.2,69,30.01,10.0,NNW,4.6,-,N/A,,Clear,340,2012-12-07 08:34:00
2:54 AM,30.2,19.4,64,30.01,10.0,NNW,5.8,-,N/A,,Clear,330,2012-12-07 08:54:00
3:14 AM,28.4,19.4,69,30.01,10.0,NNW,3.5,-,N/A,,Clear,340,2012-12-07 09:14:00
3:34 AM,28.4,19.4,69,30.00,10.0,North,3.5,-,N/A,,Clear,350,2012-12-07 09:34:00
3:54 AM,28.4,19.4,69,30.00,10.0,Calm,Calm,-,N/A,,Clear,0,2012-12-07 09:54:00
4:14 AM,28.4,19.4,69,30.01,10.0,NW,3.5,-,N/A,,Clear,310,2012-12-07 10:14:00
4:33 AM,28.4,21.2,74,30.00,10.0,Calm,Calm,-,N/A,,Clear,0,2012-12-07 10:33:00
4:53 AM,28.4,19.4,69,30.00,10.0,Calm,Calm,-,N/A,,Clear,0,2012-12-07 10:53:00
5:14 AM,28.4,21.2,74,29.99,10.0,Calm,Calm,-,N/A,,Clear,0,2012-12-07 11:14:00
5:34 AM,28.4,19.4,69,29.99,10.0,Calm,Calm,-,N/A,,Clear,0,2012-12-07 11:34:00
5:54 AM,28.4,19.4,69,30.00,10.0,North,4.6,-,N/A,,Clear,350,2012-12-07 11:54:00
6:14 AM,28.4,19.4,69,30.00,10.0,Calm,Calm,-,N/A,,Clear,0,2012-12-07 12:14:00
6:34 AM,28.4,19.4,69,30.00,10.0,Calm,Calm,-,N/A,,Clear,0,2012-12-07 12:34:00
6:53 AM,28.4,19.4,69,29.99,10.0,Calm,Calm,-,N/A,,Clear,0,2012-12-07 12:53:00
7:14 AM,26.6,19.4,74,29.98,10.0,Calm,Calm,-,N/A,,Clear,0,2012-12-07 13:14:00
7:34 AM,24.8,17.6,74,29.98,10.0,Calm,Calm,-,N/A,,Clear,0,2012-12-07 13:34:00
7:54 AM,24.8,17.6,74,29.98,10.0,Calm,Calm,-,N/A,,Clear,0,2012-12-07 13:54:00
8:14 AM,24.8,17.6,74,29.99,10.0,Calm,Calm,-,N/A,,Scattered Clouds,0,2012-12-07 14:14:00
8:34 AM,28.4,21.2,74,29.99,10.0,North,3.5,-,N/A,,Overcast,360,2012-12-07 14:34:00
8:54 AM,30.2,21.2,69,29.99,10.0,North,5.8,-,N/A,,Mostly Cloudy,10,2012-12-07 14:54:00
9:14 AM,30.2,19.4,64,29.98,10.0,North,5.8,-,N/A,,Scattered Clouds,10,2012-12-07 15:14:00
9:34 AM,30.2,19.4,64,29.99,10.0,NNE,4.6,-,N/A,,Mostly Cloudy,30,2012-12-07 15:34:00
9:54 AM,32.0,19.4,60,29.99,10.0,NE,4.6,-,N/A,,Mostly Cloudy,40,2012-12-07 15:54:00
10:14 AM,32.0,21.2,64,30.00,10.0,Calm,Calm,-,N/A,,Mostly Cloudy,0,2012-12-07 16:14:00
10:34 AM,32.0,19.4,60,30.01,10.0,Calm,Calm,-,N/A,,Scattered Clouds,0,2012-12-07 16:34:00
10:54 AM,33.8,21.2,60,30.01,10.0,Calm,Calm,-,N/A,,Scattered Clouds,0,2012-12-07 16:54:00
11:14 AM,33.8,19.4,56,30.00,10.0,Calm,Calm,-,N/A,,Mostly Cloudy,0,2012-12-07 17:14:00
11:34 AM,33.8,19.4,56,29.99,10.0,NNW,5.8,-,N/A,,Mostly Cloudy,340,2012-12-07 17:34:00
11:54 AM,35.6,19.4,52,29.98,10.0,North,8.1,-,N/A,,Scattered Clouds,360,2012-12-07 17:54:00
12:14 PM,35.6,19.4,52,29.99,10.0,NNW,9.2,-,N/A,,Mostly Cloudy,340,2012-12-07 18:14:00
12:34 PM,33.8,19.4,56,29.98,10.0,North,11.5,-,N/A,,Mostly Cloudy,360,2012-12-07 18:34:00
12:54 PM,33.8,19.4,56,29.98,10.0,North,6.9,-,N/A,,Scattered Clouds,10,2012-12-07 18:54:00
1:14 PM,33.8,19.4,56,29.98,10.0,North,11.5,-,N/A,,Overcast,350,2012-12-07 19:14:00
1:34 PM,33.8,19.4,56,29.98,10.0,North,9.2,-,N/A,,Scattered Clouds,360,2012-12-07 19:34:00
1:54 PM,33.8,19.4,56,29.98,10.0,North,10.4,-,N/A,,Scattered Clouds,360,2012-12-07 19:54:00
2:14 PM,33.8,19.4,56,29.98,10.0,North,8.1,16.1,N/A,,Scattered Clouds,360,2012-12-07 20:14:00
2:34 PM,33.8,19.4,56,29.98,10.0,North,10.4,16.1,N/A,,Clear,10,2012-12-07 20:34:00
2:54 PM,33.8,19.4,56,29.98,10.0,North,11.5,-,N/A,,Clear,360,2012-12-07 20:54:00
3:14 PM,33.8,19.4,56,29.98,10.0,North,13.8,-,N/A,,Clear,10,2012-12-07 21:14:00
3:34 PM,33.8,19.4,56,29.99,10.0,North,8.1,-,N/A,,Clear,10,2012-12-07 21:34:00
3:54 PM,33.8,19.4,56,29.98,10.0,NNE,10.4,-,N/A,,Clear,20,2012-12-07 21:54:00
4:14 PM,33.8,21.2,60,29.97,10.0,NE,10.4,-,N/A,,Clear,50,2012-12-07 22:14:00
4:34 PM,33.8,21.2,60,29.98,10.0,North,9.2,-,N/A,,Clear,10,2012-12-07 22:34:00
4:54 PM,32.0,23.0,69,29.98,7.0,NNE,8.1,-,N/A,Snow,Light Snow,20,2012-12-07 22:54:00
5:14 PM,30.2,24.8,80,29.98,2.5,NE,4.6,-,N/A,Snow,Light Snow,40,2012-12-07 23:14:00
5:54 PM,30.2,24.8,80,29.98,4.0,NE,9.2,-,N/A,Snow,Light Snow,40,2012-12-07 23:54:00
6:14 PM,30.2,24.8,80,29.99,4.0,NE,5.8,-,N/A,Snow,Light Snow,40,2012-12-08 00:14:00
6:34 PM,30.2,24.8,80,29.99,4.0,NE,9.2,-,N/A,Snow,Light Snow,50,2012-12-08 00:34:00
6:54 PM,30.2,24.8,80,29.98,3.0,NE,9.2,-,N/A,Snow,Light Snow,40,2012-12-08 00:54:00
7:14 PM,30.2,24.8,80,29.99,4.0,NNE,9.2,-,N/A,Snow,Light Snow,30,2012-12-08 01:14:00
7:34 PM,30.2,24.8,80,29.99,2.5,NNE,12.7,-,N/A,Snow,Light Snow,30,2012-12-08 01:34:00
7:54 PM,30.2,24.8,80,29.99,3.0,NNE,10.4,-,N/A,Snow,Light Snow,30,2012-12-08 01:54:00
8:14 PM,30.2,24.8,80,29.99,3.0,NNE,10.4,16.1,N/A,Snow,Light Snow,30,2012-12-08 02:14:00
8:34 PM,30.2,24.8,80,29.99,3.0,NE,9.2,-,N/A,Snow,Light Snow,40,2012-12-08 02:34:00
9:14 PM,30.2,24.8,80,29.99,5.0,NE,8.1,-,N/A,Snow,Light Snow,40,2012-12-08 03:14:00
9:34 PM,30.2,24.8,80,29.99,5.0,NNE,5.8,-,N/A,Snow,Light Snow,30,2012-12-08 03:34:00
9:53 PM,30.2,24.8,80,29.99,7.0,NE,4.6,-,N/A,Snow,Light Snow,40,2012-12-08 03:53:00
10:14 PM,30.2,24.8,80,29.99,5.0,NNE,6.9,-,N/A,Snow,Light Snow,30,2012-12-08 04:14:00
10:34 PM,30.2,24.8,80,29.99,5.0,NE,5.8,-,N/A,Snow,Light Snow,40,2012-12-08 04:34:00
10:54 PM,30.2,24.8,80,29.99,7.0,NE,4.6,-,N/A,,Scattered Clouds,40,2012-12-08 04:54:00
11:14 PM,30.2,23.0,75,29.99,7.0,NNE,5.8,-,N/A,,Scattered Clouds,30,2012-12-08 05:14:00
11:34 PM,28.4,23.0,80,29.99,7.0,NNE,3.5,-,N/A,,Mostly Cloudy,30,2012-12-08 05:34:00
11:53 PM,28.4,23.0,80,29.99,10.0,NNE,3.5,-,N/A,,Overcast,30,2012-12-08 05:53:00